Погода в Гаръя

Россия / Республика Коми     61°22′19″N   50°36′00″E
темп.,
°C
ветер,
м/с
пор.,
м/с
влажн.,
%
обл.,
%
осадки,
мм/ч
давл.,
гПа
погр.,
м
6 марта, сб
сб600:00−19зсз239890 0.1 100459
03:00−18зсз249888 0.1 1007119
06:00−18зсз2597100 0.2 1007204
09:00−16зсз259297 0.3 1008437
12:00−15зсз2485100 0.1 1008735
15:00−14з3486100 0.1 1008860
18:00−18з2296100 0.1 100825
21:00−21зюз129999 0.1 100820
7 марта, вс
вс700:00−22юз129986 0.0 100720
03:00−23ююз1210086 0.0 100820
06:00−23ю2210095 0.0 100720
09:00−18ю249697 0.1 1006225
12:00−13ю2387100 0.0 1005471
15:00−11ююв2488100 0.1 1004620
18:00−15вюв2396100 0.1 100367
21:00−17вюв259897 0.1 100393
8 марта, пн
пн800:00−18в259896 0.0 100295
03:00−18в389693 0.0 1001225
06:00−18всв4995100 0.0 1000285
09:00−17всв4893100 0.0 1000337
12:00−14св4892100 0.1 999505
15:00−13св5992100 0.4 1000623
18:00−15св41093100 0.3 1001598
21:00−16ссв4994100 0.5 1003508
9 марта, вт
вт900:00−19ссв4895100 0.1 1004398
03:00−22ссв4996100 0.1 1006346
06:00−25с4896100 0.0 1008310
09:00−25с3694100 0.0 1011306
12:00−22с369192 0.0 1012403
15:00−21с369196 0.0 1013506
18:00−25с269797 0.0 1015141
21:00−28с259748 0.0 1017101
10 марта, ср
ср1000:00−30с22980 0.0 101819
03:00−31ссз22990 0.0 101919
06:00−32сз22990 0.0 101919
09:00−25зсз23910 0.0 1018233
12:00−18зюз25840 0.0 1017422
15:00−16зюз478820 0.0 1015569
18:00−19зюз3997100 0.0 1014345
21:00−18з399699 0.1 1013392